Falfurrias, TX

10:24 AM CDT on October 23, 2019 (GMT -0500)
Falfurrias

Weather History for KBKS - May, 2019

Change the Weather History Date:

Wednesday, May 29, 2019

  Actual Average (KNQI) Record (KNQI)
Temperature  
Mean Temperature 88 °F -  
Max Temperature 96 °F 89 °F 99 °F (2018)
Min Temperature 79 °F 71 °F 66 °F (2003)
Cooling Degree Days 22    
Growing Degree Days 38 (Base 50)    
Moisture  
Dew Point 73 °F    
Average Humidity 67    
Maximum Humidity 84    
Minimum Humidity 42    
Precipitation  
Precipitation 0.00 in - - ()
Sea Level Pressure  
Sea Level Pressure 29.70 in    
Wind  
Wind Speed 13 mph (SE)    
Max Wind Speed 21 mph    
Max Gust Speed 32 mph    
Visibility 10 miles    
Events      
Averages and records for this station are not official NWS values.
T = Trace of Precipitation, MM = Missing Value Source: NWS Daily Summary

Daily Weather History Graph

Daily Weather History Graph

Search for Another Location

Airport or City:

Astronomy

May. 29, 2019 Rise Set
Actual Time 6:38 AM CDT 8:21 PM CDT
Civil Twilight 6:12 AM CDT 8:47 PM CDT
Nautical Twilight 5:41 AM CDT 9:18 PM CDT
Astronomical Twilight 5:08 AM CDT 9:51 PM CDT
Moon 3:44 AM CDT (5/29) 4:01 PM CDT (5/29)
Length of Visible Light 14h 34m
Length of Day
13h 42m
Waning Crescent, 23% of the Moon is Illuminated
May 29
Waning Crescent
Jun 3
New
Jun 10
First Quarter
Jun 17
Full
Jun 25
Last Quarter

Hourly Weather History & Observations

Time (CDT) Temp. Heat Index Dew Point Humidity Pressure Visibility Wind Dir Wind Speed Gust Speed Precip Events Conditions
12:15 AM 81.7 °F 87.6 °F 74.1 °F 78% 29.73 in 10.0 mi SE 16.1 mph - N/A   Overcast
12:35 AM 81.5 °F 87.2 °F 74.1 °F 78% 29.73 in 10.0 mi SE 11.5 mph 21.9 mph N/A   Overcast
12:55 AM 81.5 °F 87.4 °F 74.3 °F 79% 29.72 in 10.0 mi SE 13.8 mph 19.6 mph N/A   Overcast
1:15 AM 81.5 °F 87.4 °F 74.3 °F 79% 29.72 in 10.0 mi SE 15.0 mph 18.4 mph N/A   Overcast
1:35 AM 81.5 °F 87.4 °F 74.3 °F 79% 29.72 in 10.0 mi SE 11.5 mph 18.4 mph N/A   Overcast
1:55 AM 81.5 °F 87.2 °F 73.9 °F 78% 29.71 in 10.0 mi SE 11.5 mph 18.4 mph N/A   Overcast
2:15 AM 81.7 °F 87.1 °F 73.6 °F 76% 29.71 in 10.0 mi SE 13.8 mph 20.7 mph N/A   Overcast
2:35 AM 81.5 °F 86.9 °F 73.6 °F 77% 29.70 in 10.0 mi SE 8.1 mph 18.4 mph N/A   Overcast
2:55 AM 81.0 °F 86.2 °F 73.8 °F 79% 29.70 in 10.0 mi SE 8.1 mph - N/A   Mostly Cloudy
3:15 AM 81.0 °F 86.2 °F 73.9 °F 79% 29.70 in 10.0 mi SE 11.5 mph - N/A   Mostly Cloudy
3:35 AM 81.0 °F 86.2 °F 73.8 °F 79% 29.69 in 10.0 mi SE 10.4 mph 17.3 mph N/A   Overcast
3:55 AM 80.8 °F 85.8 °F 73.6 °F 79% 29.69 in 10.0 mi SE 10.4 mph 18.4 mph N/A   Overcast
4:15 AM 80.6 °F 85.4 °F 73.4 °F 79% 29.69 in 10.0 mi SE 11.5 mph 18.4 mph N/A   Mostly Cloudy
4:35 AM 80.6 °F 85.4 °F 73.6 °F 79% 29.69 in 10.0 mi SE 9.2 mph 18.4 mph N/A   Mostly Cloudy
4:55 AM 80.6 °F 85.4 °F 73.6 °F 79% 29.68 in 10.0 mi SE 12.7 mph 16.1 mph N/A   Mostly Cloudy
5:15 AM 80.6 °F 85.5 °F 73.8 °F 80% 29.69 in 10.0 mi SE 9.2 mph - N/A   Mostly Cloudy
5:35 AM 80.6 °F 85.5 °F 73.9 °F 80% 29.69 in 10.0 mi SE 9.2 mph - N/A   Overcast
5:55 AM 80.2 °F 85.0 °F 74.3 °F 82% 29.70 in 10.0 mi SE 9.2 mph - N/A   Overcast
6:15 AM 79.9 °F - 74.3 °F 83% 29.70 in 10.0 mi SE 9.2 mph - N/A   Mostly Cloudy
6:35 AM 79.9 °F - 73.9 °F 82% 29.70 in 10.0 mi SE 6.9 mph - N/A   Scattered Clouds
6:55 AM 79.9 °F - 74.1 °F 82% 29.70 in 10.0 mi SE 11.5 mph - N/A   Scattered Clouds
7:15 AM 80.2 °F 84.9 °F 73.9 °F 81% 29.70 in 10.0 mi SE 10.4 mph 16.1 mph N/A   Scattered Clouds
7:35 AM 81.1 °F 86.4 °F 73.8 °F 78% 29.70 in 10.0 mi SE 13.8 mph 19.6 mph N/A   Scattered Clouds
7:55 AM 81.7 °F 87.3 °F 73.8 °F 77% 29.71 in 10.0 mi SSE 15.0 mph 23.0 mph N/A   Clear
8:15 AM 82.4 °F 88.7 °F 74.3 °F 76% 29.71 in 10.0 mi SE 12.7 mph 18.4 mph N/A   Clear
8:35 AM 83.1 °F 90.1 °F 74.5 °F 75% 29.72 in 7.0 mi SE 9.2 mph - N/A   Scattered Clouds
8:55 AM 83.3 °F 90.2 °F 74.3 °F 74% 29.72 in 7.0 mi SSE 13.8 mph 19.6 mph N/A   Mostly Cloudy
9:15 AM 84.7 °F 92.1 °F 73.9 °F 70% 29.72 in 10.0 mi SE 15.0 mph 21.9 mph N/A   Mostly Cloudy
9:35 AM 85.8 °F 93.4 °F 73.6 °F 67% 29.72 in 10.0 mi SSE 13.8 mph 21.9 mph N/A   Scattered Clouds
9:55 AM 85.6 °F 92.2 °F 72.9 °F 65% 29.71 in 10.0 mi SSE 17.3 mph 23.0 mph N/A   Scattered Clouds
10:15 AM 88.2 °F 94.6 °F 71.8 °F 58% 29.71 in 10.0 mi South 20.7 mph 29.9 mph N/A   Scattered Clouds
10:35 AM 89.4 °F 97.3 °F 72.7 °F 58% 29.71 in 10.0 mi SE 16.1 mph 25.3 mph N/A   Scattered Clouds
10:55 AM 90.9 °F 98.3 °F 72.1 °F 54% 29.71 in 10.0 mi SE 19.6 mph 26.5 mph N/A   Scattered Clouds
11:15 AM 90.0 °F 96.4 °F 71.2 °F 54% 29.71 in 10.0 mi SSE 13.8 mph 27.6 mph N/A   Scattered Clouds
11:35 AM 90.9 °F 97.8 °F 71.4 °F 53% 29.71 in 10.0 mi SSE 17.3 mph 29.9 mph N/A   Mostly Cloudy
11:55 AM 91.6 °F 97.7 °F 70.3 °F 50% 29.71 in 10.0 mi SSE 17.3 mph 25.3 mph N/A   Mostly Cloudy
12:15 PM 92.8 °F 98.6 °F 70.2 °F 47% 29.70 in 10.0 mi SE 19.6 mph 26.5 mph N/A   Mostly Cloudy
12:35 PM 92.8 °F 98.6 °F 70.0 °F 47% 29.70 in 10.0 mi SSE 18.4 mph 24.2 mph N/A   Mostly Cloudy
12:55 PM 94.1 °F 100.0 °F 69.6 °F 45% 29.69 in 10.0 mi SE 17.3 mph 24.2 mph N/A   Mostly Cloudy
1:15 PM 93.0 °F 97.9 °F 69.1 °F 45% 29.70 in 10.0 mi SSE 15.0 mph 32.2 mph N/A   Mostly Cloudy
1:35 PM 94.5 °F 100.2 °F 69.4 °F 44% 29.69 in 10.0 mi SSE 19.6 mph 24.2 mph N/A   Scattered Clouds
1:55 PM 95.2 °F 100.5 °F 68.7 °F 42% 29.68 in 10.0 mi SSE 18.4 mph 23.0 mph N/A   Scattered Clouds
2:15 PM 94.3 °F 99.8 °F 69.1 °F 44% 29.67 in 10.0 mi SSE 19.6 mph 28.8 mph N/A   Scattered Clouds
2:35 PM 94.8 °F 99.8 °F 68.7 °F 42% 29.67 in 10.0 mi SSE 17.3 mph 21.9 mph N/A   Scattered Clouds
2:55 PM 96.1 °F 102.3 °F 69.3 °F 42% 29.66 in 10.0 mi SE 18.4 mph 25.3 mph N/A   Scattered Clouds
3:15 PM 94.6 °F 102.4 °F 71.8 °F 47% 29.66 in 10.0 mi SE 17.3 mph 20.7 mph N/A   Mostly Cloudy
3:35 PM 93.2 °F 101.1 °F 72.3 °F 50% 29.66 in 10.0 mi ESE 16.1 mph 24.2 mph N/A   Mostly Cloudy
3:55 PM 94.6 °F 103.7 °F 72.5 °F 49% 29.65 in 10.0 mi SE 13.8 mph 23.0 mph N/A   Scattered Clouds
4:15 PM 93.9 °F 102.1 °F 72.3 °F 49% 29.65 in 10.0 mi SE 17.3 mph 26.5 mph N/A   Scattered Clouds
4:35 PM 93.6 °F 101.9 °F 72.5 °F 50% 29.65 in 10.0 mi SE 16.1 mph 24.2 mph N/A   Scattered Clouds
4:55 PM 92.7 °F 101.1 °F 72.7 °F 52% 29.65 in 10.0 mi ESE 13.8 mph 28.8 mph N/A   Scattered Clouds
5:15 PM 93.2 °F 101.7 °F 72.9 °F 51% 29.64 in 10.0 mi SE 15.0 mph 20.7 mph N/A   Scattered Clouds
5:55 PM 91.6 °F 99.9 °F 72.7 °F 54% 29.64 in 10.0 mi SE 15.0 mph 20.7 mph N/A   Scattered Clouds
6:15 PM 89.8 °F 97.5 °F 72.9 °F 57% 29.64 in 10.0 mi SE 17.3 mph 23.0 mph N/A   Scattered Clouds
6:35 PM 88.7 °F 96.2 °F 72.5 °F 59% 29.65 in 10.0 mi SE 16.1 mph 20.7 mph N/A   Scattered Clouds
7:15 PM 87.6 °F 94.8 °F 72.5 °F 61% 29.65 in 10.0 mi SE 9.2 mph 18.4 mph N/A   Scattered Clouds
7:30 PM 86.9 °F 93.7 °F 72.7 °F 62% 29.66 in 10.0 mi ESE 11.5 mph 18.4 mph N/A   Scattered Clouds
8:00 PM 85.3 °F 91.5 °F 72.5 °F 65% 29.67 in 10.0 mi ESE 11.5 mph - N/A   Clear
8:15 PM 84.4 °F 90.6 °F 72.7 °F 68% 29.68 in 10.0 mi ESE 11.5 mph 16.1 mph N/A   Clear
8:35 PM 83.5 °F 89.4 °F 72.7 °F 70% 29.69 in 10.0 mi ESE 9.2 mph - N/A   Scattered Clouds
8:55 PM 82.8 °F 88.4 °F 72.9 °F 72% 29.70 in 10.0 mi ESE 4.6 mph 9.2 mph N/A   Mostly Cloudy
9:15 PM 82.4 °F 88.2 °F 73.2 °F 74% 29.71 in 10.0 mi ESE 8.1 mph - N/A   Mostly Cloudy
9:35 PM 82.4 °F 88.2 °F 73.4 °F 74% 29.72 in 10.0 mi ESE 8.1 mph - N/A   Overcast
9:55 PM 81.5 °F 86.9 °F 73.6 °F 77% 29.72 in 10.0 mi ESE 8.1 mph - N/A   Scattered Clouds
10:15 PM 81.0 °F 86.2 °F 73.8 °F 79% 29.73 in 10.0 mi ESE 5.8 mph - N/A   Clear
10:35 PM 80.6 °F 85.5 °F 73.9 °F 80% 29.74 in 10.0 mi ESE 6.9 mph - N/A   Clear
10:55 PM 80.2 °F 85.0 °F 74.3 °F 82% 29.74 in 7.0 mi ESE 6.9 mph - N/A   Clear
11:15 PM 79.9 °F - 74.3 °F 83% 29.75 in 7.0 mi ESE 6.9 mph - N/A   Clear
11:35 PM 79.7 °F - 74.5 °F 84% 29.75 in 7.0 mi ESE 6.9 mph - N/A   Clear
11:55 PM 79.7 °F - 74.7 °F 84% 29.75 in 7.0 mi ESE 5.8 mph - N/A   Clear